User: anonymous   Login
Location: Plum
(40.5000°N, 79.7500°W)
Time: 03:15:56
(UTC-04:00)
Language:

Cosmos 1825 - Orbit

View from above orbital plane
View from above orbital plane
View from above satellite
View from above satellite

Ground track
Ground track

The orbit data is extracted from the following two-line orbital elements,

1 17566U 87024A   16242.50271906  .00001246  00000-0  59726-4 0  9997
2 17566  82.5043 219.1866 0005105 132.8979 227.2684 15.17999684609580
Epoch (UTC): 29 August 2016 12:03:54
Eccentricity: 0.0005105
inclination: 82.5043°
perigee height: 508 km
apogee height: 515 km
right ascension of ascending node: 219.1866°
argument of perigee: 132.8979°
revolutions per day: 15.17999684
mean anomaly at epoch: 227.2684°
orbit number at epoch: 60958

The dashed part of the orbit path shows where the satellite is in the earth's shadow,  

DLR